Theta_e
325 325 324 323 322 321 320 320 320 319 319 319 319 319 318 319 319 305 299 304 309 317 316 304 300 298 299 296 297 295 284 281 285 286 287 291 290 293 294 291 293 293 290 292 295
327 326 326 324 323 323 322 320 320 320 319 319 319 318 318 320 307 301 305 312 313 315 304 296 293 295 291 294 294 289 282 285 288 288 287 291 291 291 289 289 289 290 294 294 293
328 328 327 326 325 324 323 322 321 320 320 319 319 319 319 316 297 293 308 310 312 310 302 298 296 294 291 292 292 289 284 289 289 291 292 291 290 292 289 286 288 289 290 291 290
330 329 328 327 326 325 324 323 322 321 321 319 318 318 318 307 291 294 306 308 310 306 300 296 294 290 289 289 292 286 290 290 292 292 291 289 292 289 290 289 291 291 291 290 289
330 330 329 328 327 326 325 324 323 322 322 320 318 318 307 296 294 298 307 304 299 298 296 294 291 289 287 287 289 286 288 292 292 292 291 292 290 290 291 293 292 294 292 289 288
325 329 329 329 328 327 326 324 323 323 322 320 318 318 302 292 295 297 295 296 296 295 295 295 292 293 289 289 286 288 289 289 290 291 291 289 289 290 292 293 291 292 289 289 288
322 323 323 326 327 326 326 325 325 323 321 320 317 309 298 295 295 294 299 295 296 296 294 297 296 292 290 288 290 288 285 288 289 290 289 290 285 287 292 293 290 290 290 290 289
319 320 321 321 322 326 326 326 324 322 320 316 314 303 293 295 294 294 297 297 298 299 298 299 299 296 289 291 291 288 288 281 288 289 290 286 278 288 292 291 289 290 289 290 290
318 317 318 319 320 320 322 324 323 322 317 313 303 297 291 299 293 295 295 294 296 299 298 301 296 290 289 285 287 290 283 281 282 288 289 284 279 289 291 291 289 288 287 289 288
314 315 316 317 318 319 320 322 321 320 309 307 305 293 295 292 296 296 294 296 294 297 297 293 287 282 282 281 276 280 278 281 280 282 285 283 282 287 289 290 289 287 287 284 280
314 314 317 316 317 319 316 310 305 299 300 295 297 296 303 294 296 293 295 293 293 292 287 289 281 277 282 283 285 281 280 280 283 284 280 280 281 284 287 289 286 286 285 279 282
313 315 317 316 314 312 312 307 298 299 297 304 305 304 296 295 293 293 294 287 289 283 286 285 280 284 285 286 283 279 276 275 278 282 279 279 278 281 288 286 286 284 282 280 280
312 314 314 314 314 309 305 300 304 303 295 301 297 292 290 291 288 288 291 289 284 282 283 280 282 286 284 281 280 278 276 275 277 280 282 279 277 279 285 287 288 283 282 279 276
312 312 313 313 309 304 299 301 303 303 290 293 290 288 290 290 287 293 293 289 287 282 282 281 284 284 281 280 279 275 281 280 279 276 272 280 270 278 283 280 282 279 278 277 277
310 310 311 312 304 302 299 302 306 304 272 287 286 291 289 291 294 292 294 290 285 285 282 280 281 281 280 280 281 277 282 279 279 277 276 278 271 275 282 276 278 278 277 277 276
309 309 309 306 303 302 304 303 300 287 277 286 290 288 292 293 292 293 291 291 289 285 285 282 285 283 281 282 282 282 280 278 279 277 269 272 274 272 271 270 275 275 276 277 277
309 309 305 304 299 303 304 302 284 278 291 289 289 290 288 289 292 291 287 285 279 276 277 282 281 282 283 278 281 279 278 269 272 272 268 274 273 272 275 276 272 269 273 275 277
309 309 303 302 303 303 302 289 274 284 290 290 289 288 284 288 288 287 285 281 285 281 274 275 274 279 283 278 275 276 277 272 268 268 270 276 268 274 277 277 271 270 269 276 276
309 304 300 302 303 302 295 278 283 290 292 290 289 283 288 286 283 285 285 284 284 282 277 274 277 281 282 281 278 277 273 279 271 271 268 271 272 276 276 275 274 272 270 273 275
297 298 296 302 303 300 289 284 285 292 293 292 280 285 281 286 285 284 282 283 281 285 285 281 271 280 280 281 280 279 280 274 274 266 263 271 269 270 270 270 272 270 269 272 275
296 291 297 301 300 292 285 283 290 293 293 286 285 282 282 283 286 284 286 284 285 284 285 281 274 276 279 276 276 275 275 275 275 273 267 266 269 269 266 263 266 268 269 270 273
294 285 298 299 284 286 284 288 292 291 291 288 289 287 285 286 284 284 282 284 286 285 279 282 278 271 277 279 281 279 277 277 272 269 269 268 269 274 269 265 263 266 269 270 274
290 292 297 296 278 283 287 289 290 289 290 288 287 288 288 284 283 286 284 285 286 285 280 281 274 269 273 277 279 276 277 277 274 271 267 265 269 277 273 267 265 264 269 271 274
293 283 289 289 289 287 284 284 285 291 288 289 288 289 285 283 286 284 282 284 286 286 288 284 277 275 274 276 277 274 276 276 274 269 266 269 268 273 272 267 267 268 268 269 272
292 287 291 284 283 285 286 285 284 283 287 289 285 285 285 282 278 282 283 283 284 286 286 281 274 277 279 280 278 278 276 274 271 272 269 268 266 270 269 264 264 264 267 270 271
291 285 286 287 289 285 286 284 283 284 286 284 283 286 285 281 283 281 283 282 281 283 282 280 276 277 274 278 277 275 276 277 274 274 272 269 271 273 269 269 266 263 267 268 270
298 296 292 288 285 284 284 284 285 286 285 289 287 284 282 284 285 285 286 285 284 281 279 278 276 275 272 276 272 272 274 275 274 272 272 270 272 274 270 274 268 266 264 266 269
Wind_Speed
10 10 9 10 11 12 12 13 14 14 15 15 16 16 16 16 16 5 2 2 4 10 11 7 4 6 3 2 1 3 3 3 5 5 1 1 2 3 4 5 1 3 4 8 7
11 10 10 10 10 11 12 13 13 14 15 15 15 16 16 15 5 4 2 5 5 6 5 6 6 5 1 3 1 3 3 4 1 2 3 2 2 6 2 2 3 3 9 6 6
13 12 11 10 11 11 12 13 13 13 14 15 16 16 16 12 4 1 4 4 4 4 3 4 5 2 3 5 5 4 5 1 2 3 3 2 1 3 5 3 1 6 5 4 6
15 12 12 12 11 11 11 12 13 13 14 14 15 17 16 2 4 3 3 4 6 5 3 4 4 2 3 4 5 4 6 4 1 3 1 2 1 2 5 6 9 8 5 3 3
14 15 14 14 13 12 12 13 13 14 14 15 15 14 7 2 7 5 3 5 6 4 4 4 4 3 2 5 2 4 4 2 1 5 4 4 4 5 5 5 7 7 5 0 2
19 15 14 15 13 13 12 13 14 13 14 14 14 8 1 4 3 3 1 4 3 5 7 4 2 4 4 4 1 3 5 7 5 6 5 5 4 3 4 8 7 6 3 5 2
17 17 16 15 15 12 14 15 15 13 13 14 9 3 4 10 3 2 3 2 0 3 3 4 4 4 5 6 5 5 6 7 9 8 3 2 6 9 5 9 7 5 6 6 3
17 17 17 15 14 14 12 14 15 12 13 10 4 2 6 0 2 1 3 3 2 1 3 4 5 2 0 5 4 3 3 3 5 8 1 6 7 5 7 8 5 6 6 2 4
20 19 18 17 15 13 13 15 15 14 9 5 1 3 7 1 1 3 3 2 5 2 2 1 2 1 2 0 2 4 4 5 5 0 5 4 6 4 5 6 6 6 3 3 7
20 21 21 18 16 14 14 9 12 9 4 5 5 3 3 0 3 1 2 2 2 2 2 1 3 2 3 3 3 3 3 4 5 5 5 5 13 8 7 7 7 6 4 6 7
22 23 22 13 14 12 4 5 2 2 3 7 3 3 5 0 2 2 2 2 2 2 3 3 3 5 8 9 4 5 4 7 6 3 2 7 12 8 7 6 4 3 3 4 10
22 22 18 10 7 5 0 1 3 1 6 9 12 3 4 1 2 2 1 2 3 5 3 2 7 5 4 6 6 3 5 7 4 3 2 6 12 6 4 4 5 2 7 6 7
19 20 17 15 10 4 2 4 5 3 2 3 3 5 1 3 3 1 3 5 5 4 6 7 3 4 2 2 4 4 5 3 4 6 5 7 6 3 3 4 4 5 2 3 5
18 19 17 17 5 3 2 8 6 3 2 2 2 1 1 1 2 1 1 1 4 4 4 3 2 1 1 3 4 4 1 2 5 4 3 3 6 2 3 3 4 3 7 7 9
15 18 17 7 5 2 6 7 7 1 4 3 1 1 3 2 0 5 2 2 4 4 3 5 2 1 2 1 1 6 2 2 1 3 3 2 2 5 4 4 4 6 8 8 8
13 15 16 5 3 2 7 7 2 3 6 0 1 2 2 3 3 1 2 2 4 3 4 6 3 3 1 2 1 3 3 1 2 1 2 4 4 3 2 5 6 5 7 11 13
10 12 7 3 2 6 6 2 3 3 0 1 0 1 1 3 4 7 2 1 1 5 4 2 3 2 2 2 2 1 4 4 2 1 5 3 2 6 3 1 4 7 9 11 12
9 7 2 0 3 5 2 4 2 5 2 1 3 3 3 5 2 2 2 2 2 3 2 1 5 2 0 1 2 1 4 3 4 2 4 2 4 5 3 4 2 3 6 12 14
11 1 2 2 2 2 2 3 3 3 3 5 7 1 2 1 1 4 1 1 4 1 3 3 3 1 4 2 0 0 0 1 0 2 2 3 1 3 2 6 8 8 9 13 14
1 2 0 4 2 2 4 5 2 5 5 4 1 5 3 5 5 5 3 4 3 5 3 2 4 2 2 1 1 2 2 1 2 3 5 4 3 3 5 9 9 10 11 13 13
1 3 2 5 1 4 2 4 3 5 5 5 3 4 3 4 2 3 2 4 4 4 6 2 3 4 2 5 3 1 1 0 1 3 3 3 4 6 6 6 7 9 9 10 12
0 1 3 3 4 1 3 2 4 4 4 4 2 2 2 2 3 3 2 3 4 2 3 2 1 4 5 2 2 1 2 3 3 3 1 2 6 2 5 4 2 8 8 9 9
2 1 2 4 3 2 4 2 3 2 1 0 1 1 1 2 4 4 3 2 3 2 3 2 3 4 5 3 2 3 3 3 4 3 5 5 5 3 1 3 3 6 9 9 11
2 0 2 3 0 2 2 2 2 2 2 2 2 1 1 3 5 4 3 2 4 4 6 2 3 5 3 3 3 1 3 4 4 3 3 7 3 4 1 3 6 7 7 9 10
2 3 3 2 2 1 2 1 2 2 1 2 2 2 2 3 4 3 2 2 5 3 3 3 4 5 9 13 7 6 5 7 8 5 6 4 3 6 5 4 2 6 6 9 12
4 4 3 1 3 5 2 2 5 1 2 1 3 1 0 4 3 6 3 4 4 4 4 3 3 1 5 6 9 8 9 9 8 4 8 3 8 4 4 3 5 5 7 7 11
3 2 5 5 4 4 4 4 4 3 2 4 2 1 6 4 2 6 4 3 1 3 5 4 2 1 4 2 2 7 9 11 4 3 6 4 3 6 2 2 1 4 6 6 9
Wind_Direction
315 320 325 331 335 334 337 335 337 340 337 334 334 332 329 325 322 302 207 229 306 328 331 290 293 255 228 267 236 57 50 253 268 4 91 274 120 355 149 116 131 146 95 137 139
298 304 312 319 322 325 326 328 331 331 328 327 329 328 326 330 310 270 296 317 340 340 346 344 337 357 273 213 196 111 148 246 350 7 33 243 156 162 108 149 201 149 102 103 95
287 293 298 301 305 310 315 317 319 318 318 323 324 326 323 331 316 190 316 329 326 320 254 280 269 266 249 167 196 199 208 206 29 110 55 353 305 125 132 245 223 202 116 77 77
281 277 279 281 285 290 296 301 306 311 313 318 318 322 317 238 325 205 291 302 299 280 296 267 264 237 229 223 206 216 255 284 182 86 60 280 310 316 179 213 150 132 135 126 106
272 272 271 270 275 281 287 292 297 302 308 315 316 323 340 318 252 206 308 293 305 292 278 332 355 351 315 341 323 215 257 311 200 170 214 272 249 236 248 201 150 139 121 260 248
0 318 278 271 267 270 276 282 286 295 306 311 315 325 195 264 158 111 39 322 13 357 336 54 21 316 283 275 255 308 313 286 281 217 211 212 237 165 254 142 155 147 178 254 88
346 339 343 313 257 266 274 281 289 293 302 313 314 273 254 238 122 46 283 162 153 0 10 24 36 35 344 317 345 328 320 304 248 210 137 74 284 238 175 139 154 184 220 247 124
341 333 331 323 327 291 278 281 283 289 299 304 273 235 248 289 358 304 13 318 208 117 58 80 30 296 221 317 323 286 227 291 289 143 145 104 269 330 137 140 194 223 245 44 343
338 331 323 314 310 308 303 283 277 290 287 274 240 202 275 99 120 165 110 339 310 172 166 145 37 52 356 301 306 228 280 246 310 312 133 161 259 211 170 176 209 230 255 326 339
339 332 323 307 305 304 297 278 270 294 273 217 262 321 233 320 138 114 153 144 276 5 174 128 48 57 349 95 242 225 276 296 277 259 192 198 252 249 242 197 214 238 274 9 314
341 334 322 317 312 293 297 319 55 301 264 214 210 267 346 89 130 191 106 326 230 230 215 196 79 239 232 207 214 272 264 270 286 300 264 235 264 255 265 179 209 229 334 308 344
348 349 351 343 356 31 276 302 55 289 297 279 266 244 100 23 310 101 337 263 178 241 165 68 238 208 143 172 221 281 286 281 284 174 237 264 274 265 168 138 166 139 30 320 300
347 349 351 350 344 320 49 39 358 340 263 298 354 55 10 41 340 41 33 326 246 262 269 200 255 144 188 252 243 262 236 275 267 326 260 284 295 40 41 81 95 95 209 258 287
346 348 343 338 315 331 45 335 331 330 355 208 99 320 138 156 96 352 82 242 283 252 293 270 179 146 230 259 127 273 28 347 322 357 260 71 284 259 198 234 156 354 357 330 311
354 350 345 20 305 34 315 315 307 288 5 349 261 300 238 157 117 232 134 217 251 294 70 254 134 266 259 337 15 243 345 284 279 264 318 298 84 284 136 287 272 342 333 318 307
359 1 352 14 65 357 316 310 301 58 255 292 52 352 329 173 208 195 205 238 249 289 231 230 128 88 128 86 311 307 302 184 238 222 345 252 127 257 206 222 292 306 320 329 328
344 3 25 344 340 317 316 309 36 159 198 196 311 16 239 265 241 191 184 243 127 21 357 356 146 92 88 288 288 300 45 327 320 265 226 310 80 243 231 220 225 287 316 321 325
317 335 16 158 291 315 278 54 89 273 34 245 254 259 232 8 249 303 186 273 99 88 20 63 316 42 174 204 235 10 144 167 272 306 282 357 249 284 121 101 348 263 294 328 331
313 161 164 305 255 284 63 52 215 339 347 349 320 130 147 78 308 355 304 46 55 92 122 26 278 92 44 9 334 307 249 123 111 232 30 216 158 18 168 347 354 338 334 332 331
350 355 46 307 302 284 80 236 239 21 331 29 288 19 323 353 336 2 313 358 95 48 43 21 317 185 177 285 39 163 130 35 12 349 306 281 165 201 313 312 324 334 333 331 327
39 28 283 319 59 53 221 234 53 72 23 42 350 325 312 317 289 259 284 47 37 30 327 114 102 288 86 210 184 109 322 48 123 144 188 299 282 206 220 242 289 316 316 316 325
290 347 298 25 51 95 210 337 28 346 39 23 126 217 228 313 275 263 279 72 41 97 126 32 178 263 247 351 342 327 271 174 134 264 193 157 280 205 206 230 225 305 312 313 323
217 226 335 69 151 213 233 247 171 253 16 110 160 216 200 273 283 278 26 117 127 156 159 1 250 304 319 359 8 253 201 135 106 80 219 139 262 148 91 3 302 325 326 326 337
156 214 340 52 289 44 30 290 248 39 314 56 310 117 289 264 209 280 325 183 172 211 190 6 248 221 230 248 132 229 206 177 148 139 211 233 289 159 327 321 332 336 336 329 343
194 232 184 184 265 166 87 105 280 283 212 139 228 234 355 287 303 237 236 211 203 225 197 171 243 224 252 258 236 230 191 184 188 210 177 247 200 265 237 230 267 284 340 348 349
163 141 345 79 98 120 193 235 230 234 154 244 200 13 341 272 283 288 294 193 224 171 194 151 257 65 277 260 214 245 222 209 211 243 273 227 297 168 236 151 27 333 352 348 345
209 152 119 158 131 127 209 208 215 110 301 240 211 332 268 276 314 286 266 298 277 190 187 184 249 115 269 291 50 288 226 193 180 203 157 190 208 150 123 74 3 3 332 340 337